QPF
0.01 0.01 0.00 0.00 0.00 0.00 0.00 0.00 0.00 0.00 0.00 0.00 0.00 0.00 0.00 0.00 0.00 0.00 0.01 0.01 0.01 0.01 0.02 0.03 0.03 0.03 0.03 0.02 0.02 0.02 0.01 0.01 0.01 0.01 0.01 0.01 0.01 0.01 0.02 0.02 0.02 0.02 0.02 0.02 0.01 0.01 0.00 0.00 0.00
0.01 0.01 0.01 0.01 0.00 0.00 0.00 0.00 0.00 0.00 0.00 0.00 0.00 0.00 0.00 0.00 0.00 0.00 0.01 0.01 0.01 0.01 0.03 0.03 0.03 0.03 0.04 0.03 0.02 0.01 0.01 0.01 0.01 0.01 0.02 0.01 0.01 0.02 0.02 0.02 0.01 0.01 0.01 0.01 0.01 0.01 0.00 0.01 0.00
0.01 0.02 0.01 0.01 0.00 0.00 0.00 0.00 0.00 0.00 0.00 0.00 0.00 0.00 0.00 0.00 0.00 0.00 0.01 0.01 0.01 0.01 0.02 0.02 0.04 0.03 0.04 0.04 0.03 0.01 0.01 0.01 0.02 0.02 0.02 0.02 0.02 0.02 0.02 0.02 0.01 0.01 0.01 0.01 0.01 0.01 0.01 0.01 0.01
0.02 0.03 0.02 0.01 0.00 0.00 0.00 0.00 0.00 0.00 0.00 0.00 0.00 0.00 0.00 0.00 0.00 0.00 0.01 0.00 0.00 0.01 0.02 0.03 0.04 0.04 0.04 0.04 0.04 0.03 0.01 0.01 0.02 0.02 0.02 0.01 0.02 0.02 0.01 0.01 0.01 0.00 0.00 0.00 0.01 0.01 0.01 0.01 0.01
0.03 0.03 0.02 0.00 0.00 0.00 0.00 0.00 0.00 0.00 0.00 0.00 0.00 0.00 0.00 0.00 0.00 0.00 0.01 0.00 0.00 0.01 0.01 0.02 0.04 0.04 0.03 0.02 0.03 0.03 0.02 0.02 0.02 0.01 0.01 0.01 0.01 0.01 0.01 0.01 0.00 0.00 0.00 0.00 0.00 0.00 0.00 0.00 0.00
0.04 0.03 0.01 0.00 0.00 0.00 0.00 0.00 0.00 0.00 0.00 0.00 0.00 0.00 0.00 0.00 0.00 0.00 0.01 0.01 0.00 0.01 0.01 0.02 0.04 0.04 0.03 0.02 0.03 0.03 0.02 0.02 0.02 0.01 0.02 0.01 0.01 0.01 0.00 0.00 0.00 0.00 0.00 0.00 0.00 0.00 0.00 0.00 0.00
0.04 0.03 0.01 0.00 0.00 0.00 0.00 0.00 0.00 0.00 0.00 0.00 0.00 0.00 0.00 0.01 0.01 0.01 0.01 0.01 0.01 0.01 0.01 0.02 0.02 0.03 0.03 0.03 0.03 0.03 0.02 0.01 0.02 0.02 0.02 0.01 0.01 0.01 0.00 0.00 0.00 0.00 0.00 0.00 0.00 0.00 0.01 0.01 0.00
0.04 0.03 0.01 0.00 0.00 0.00 0.00 0.00 0.00 0.00 0.00 0.00 0.00 0.00 0.00 0.01 0.01 0.01 0.02 0.02 0.02 0.02 0.02 0.02 0.02 0.02 0.03 0.03 0.02 0.03 0.02 0.02 0.02 0.02 0.02 0.01 0.01 0.01 0.01 0.00 0.00 0.00 0.00 0.00 0.00 0.00 0.00 0.00 0.00
0.05 0.05 0.02 0.00 0.00 0.00 0.00 0.00 0.00 0.00 0.00 0.00 0.00 0.00 0.00 0.00 0.01 0.02 0.03 0.03 0.03 0.03 0.03 0.02 0.02 0.02 0.03 0.02 0.02 0.02 0.02 0.02 0.03 0.02 0.02 0.01 0.01 0.01 0.01 0.00 0.00 0.00 0.00 0.00 0.00 0.00 0.00 0.00 0.00
0.05 0.05 0.02 0.00 0.00 0.00 0.00 0.00 0.00 0.00 0.00 0.00 0.00 0.00 0.00 0.01 0.02 0.02 0.02 0.02 0.02 0.02 0.02 0.02 0.03 0.02 0.02 0.02 0.02 0.02 0.02 0.02 0.02 0.01 0.01 0.01 0.02 0.01 0.01 0.01 0.00 0.00 0.00 0.00 0.00 0.00 0.00 0.00 0.00
0.05 0.03 0.01 0.00 0.00 0.00 0.00 0.00 0.00 0.00 0.00 0.00 0.00 0.00 0.01 0.02 0.03 0.02 0.01 0.02 0.02 0.03 0.03 0.02 0.03 0.04 0.02 0.02 0.01 0.02 0.01 0.02 0.02 0.01 0.02 0.03 0.02 0.02 0.02 0.01 0.01 0.00 0.00 0.00 0.00 0.00 0.00 0.00 0.00
0.05 0.03 0.01 0.01 0.00 0.00 0.00 0.00 0.00 0.00 0.00 0.00 0.00 0.01 0.01 0.02 0.02 0.02 0.01 0.01 0.02 0.03 0.03 0.04 0.04 0.04 0.04 0.03 0.03 0.02 0.02 0.01 0.01 0.01 0.02 0.03 0.03 0.01 0.01 0.01 0.01 0.01 0.00 0.00 0.00 0.00 0.00 0.00 0.00
0.05 0.03 0.02 0.01 0.00 0.00 0.00 0.00 0.00 0.00 0.00 0.00 0.01 0.01 0.02 0.02 0.02 0.03 0.03 0.02 0.03 0.03 0.03 0.06 0.06 0.06 0.05 0.05 0.04 0.04 0.03 0.02 0.02 0.03 0.02 0.02 0.02 0.02 0.01 0.01 0.01 0.01 0.01 0.00 0.00 0.00 0.00 0.00 0.00
0.04 0.03 0.02 0.02 0.01 0.00 0.00 0.00 0.00 0.00 0.00 0.01 0.01 0.02 0.02 0.02 0.03 0.04 0.04 0.04 0.03 0.03 0.02 0.03 0.06 0.07 0.08 0.07 0.05 0.05 0.06 0.05 0.04 0.04 0.02 0.02 0.02 0.01 0.01 0.01 0.01 0.00 0.00 0.00 0.00 0.00 0.00 0.00 0.00
0.04 0.04 0.04 0.03 0.02 0.01 0.00 0.00 0.00 0.00 0.00 0.01 0.01 0.02 0.03 0.03 0.03 0.04 0.05 0.04 0.03 0.03 0.02 0.03 0.04 0.08 0.10 0.08 0.07 0.07 0.09 0.09 0.08 0.06 0.04 0.03 0.02 0.02 0.01 0.01 0.01 0.01 0.00 0.00 0.00 0.00 0.00 0.00 0.00
0.05 0.06 0.06 0.04 0.02 0.02 0.01 0.01 0.00 0.00 0.01 0.01 0.01 0.01 0.02 0.03 0.04 0.03 0.04 0.04 0.04 0.03 0.02 0.03 0.04 0.07 0.10 0.10 0.10 0.09 0.09 0.09 0.09 0.08 0.06 0.05 0.04 0.04 0.03 0.03 0.02 0.02 0.01 0.01 0.00 0.00 0.00 0.00 0.00
0.08 0.06 0.05 0.04 0.02 0.02 0.02 0.01 0.00 0.00 0.01 0.01 0.01 0.01 0.01 0.03 0.03 0.03 0.02 0.03 0.03 0.03 0.03 0.04 0.05 0.07 0.09 0.11 0.12 0.15 0.14 0.10 0.11 0.11 0.09 0.06 0.04 0.04 0.03 0.03 0.02 0.02 0.02 0.01 0.01 0.00 0.00 0.00 0.00
0.07 0.04 0.05 0.04 0.02 0.02 0.02 0.01 0.00 0.00 0.01 0.01 0.01 0.02 0.02 0.02 0.02 0.02 0.02 0.03 0.04 0.04 0.04 0.05 0.06 0.07 0.09 0.10 0.11 0.12 0.15 0.13 0.12 0.13 0.12 0.10 0.08 0.05 0.04 0.04 0.03 0.03 0.02 0.02 0.01 0.01 0.00 0.00 0.00
0.05 0.03 0.04 0.04 0.02 0.01 0.01 0.01 0.00 0.00 0.01 0.01 0.01 0.02 0.02 0.02 0.02 0.02 0.03 0.04 0.04 0.04 0.04 0.04 0.06 0.06 0.08 0.08 0.08 0.08 0.08 0.10 0.10 0.09 0.09 0.09 0.09 0.06 0.04 0.04 0.05 0.04 0.03 0.02 0.01 0.01 0.01 0.00 0.00
0.04 0.04 0.04 0.04 0.03 0.01 0.01 0.01 0.00 0.00 0.00 0.00 0.01 0.02 0.02 0.03 0.02 0.02 0.03 0.04 0.04 0.03 0.04 0.04 0.04 0.05 0.05 0.06 0.06 0.06 0.05 0.06 0.08 0.09 0.08 0.07 0.06 0.05 0.04 0.04 0.05 0.05 0.04 0.04 0.03 0.03 0.02 0.01 0.01
0.05 0.05 0.05 0.05 0.04 0.02 0.01 0.02 0.01 0.01 0.00 0.01 0.01 0.02 0.03 0.02 0.03 0.03 0.03 0.03 0.03 0.04 0.04 0.04 0.04 0.05 0.05 0.07 0.08 0.07 0.07 0.06 0.06 0.06 0.06 0.05 0.05 0.05 0.04 0.04 0.04 0.06 0.07 0.06 0.05 0.05 0.05 0.04 0.03
0.06 0.04 0.04 0.04 0.04 0.05 0.03 0.04 0.02 0.01 0.00 0.00 0.01 0.01 0.02 0.02 0.02 0.02 0.03 0.03 0.03 0.03 0.03 0.04 0.06 0.06 0.07 0.07 0.08 0.07 0.06 0.04 0.04 0.04 0.04 0.03 0.04 0.05 0.05 0.04 0.03 0.03 0.03 0.03 0.03 0.04 0.06 0.07 0.06
0.04 0.04 0.04 0.04 0.04 0.05 0.04 0.04 0.02 0.01 0.01 0.00 0.00 0.00 0.01 0.01 0.01 0.01 0.02 0.03 0.03 0.03 0.04 0.04 0.04 0.05 0.06 0.06 0.07 0.08 0.07 0.05 0.05 0.04 0.04 0.03 0.03 0.03 0.03 0.03 0.02 0.02 0.01 0.01 0.01 0.02 0.03 0.05 0.06
0.04 0.05 0.07 0.06 0.06 0.07 0.04 0.03 0.02 0.01 0.00 0.00 0.00 0.00 0.01 0.01 0.01 0.00 0.01 0.01 0.02 0.02 0.03 0.03 0.03 0.03 0.04 0.05 0.06 0.07 0.06 0.05 0.04 0.03 0.03 0.03 0.03 0.02 0.02 0.02 0.02 0.01 0.01 0.01 0.01 0.01 0.01 0.02 0.04
0.07 0.08 0.15 0.18 0.16 0.10 0.03 0.02 0.02 0.01 0.00 0.00 0.00 0.00 0.00 0.01 0.01 0.00 0.00 0.00 0.00 0.01 0.02 0.03 0.03 0.03 0.03 0.03 0.04 0.05 0.06 0.06 0.04 0.04 0.04 0.03 0.03 0.03 0.03 0.03 0.02 0.01 0.01 0.01 0.01 0.01 0.01 0.01 0.02
0.08 0.05 0.07 0.09 0.09 0.05 0.03 0.02 0.02 0.01 0.01 0.00 0.00 0.00 0.00 0.01 0.01 0.00 0.00 0.00 0.00 0.00 0.01 0.02 0.03 0.04 0.03 0.03 0.03 0.03 0.05 0.06 0.05 0.04 0.04 0.04 0.03 0.03 0.03 0.04 0.04 0.03 0.02 0.01 0.01 0.01 0.01 0.01 0.01
0.08 0.05 0.02 0.02 0.02 0.02 0.03 0.02 0.01 0.01 0.01 0.01 0.01 0.00 0.00 0.00 0.00 0.01 0.01 0.00 0.00 0.00 0.00 0.01 0.02 0.03 0.05 0.05 0.04 0.03 0.03 0.04 0.04 0.04 0.04 0.05 0.04 0.03 0.02 0.02 0.02 0.02 0.02 0.01 0.01 0.01 0.01 0.02 0.02
0.07 0.04 0.03 0.03 0.03 0.02 0.02 0.01 0.01 0.00 0.00 0.01 0.01 0.01 0.01 0.00 0.00 0.01 0.01 0.00 0.00 0.00 0.00 0.00 0.01 0.03 0.04 0.06 0.06 0.05 0.04 0.04 0.04 0.04 0.03 0.03 0.03 0.04 0.03 0.02 0.02 0.01 0.01 0.01 0.01 0.01 0.01 0.01 0.02
0.07 0.05 0.04 0.04 0.03 0.02 0.01 0.01 0.01 0.01 0.00 0.00 0.01 0.01 0.01 0.01 0.01 0.00 0.00 0.01 0.00 0.00 0.00 0.00 0.01 0.02 0.03 0.05 0.07 0.05 0.04 0.04 0.03 0.03 0.03 0.03 0.03 0.03 0.03 0.04 0.03 0.02 0.01 0.01 0.01 0.01 0.01 0.01 0.01
0.05 0.05 0.04 0.04 0.03 0.02 0.02 0.01 0.01 0.00 0.00 0.01 0.01 0.01 0.01 0.01 0.01 0.01 0.01 0.01 0.00 0.00 0.00 0.01 0.01 0.01 0.02 0.03 0.05 0.05 0.05 0.04 0.03 0.04 0.03 0.02 0.02 0.02 0.03 0.03 0.04 0.04 0.03 0.02 0.02 0.01 0.01 0.01 0.01
MSLP
1013.78 1014.04 1014.37 1014.69 1014.90 1014.93 1014.76 1014.38 1013.83 1013.19 1012.52 1011.90 1011.36 1010.89 1010.48 1010.09 1009.68 1009.24 1008.79 1008.36 1008.03 1007.85 1007.89 1008.15 1008.63 1009.25 1009.95 1010.63 1011.23 1011.72 1012.08 1012.36 1012.60 1012.85 1013.16 1013.55 1013.99 1014.47 1014.93 1015.34 1015.67 1015.91 1016.08 1016.18 1016.26 1016.33 1016.40 1016.47 1016.53
1013.91 1014.11 1014.35 1014.56 1014.63 1014.52 1014.19 1013.65 1012.95 1012.15 1011.35 1010.61 1009.96 1009.43 1009.00 1008.63 1008.29 1007.96 1007.65 1007.39 1007.23 1007.22 1007.40 1007.79 1008.36 1009.06 1009.81 1010.54 1011.18 1011.70 1012.10 1012.40 1012.66 1012.92 1013.24 1013.61 1014.04 1014.50 1014.95 1015.34 1015.67 1015.91 1016.09 1016.21 1016.31 1016.39 1016.48 1016.55 1016.62
1013.96 1014.05 1014.16 1014.22 1014.15 1013.91 1013.47 1012.84 1012.06 1011.19 1010.31 1009.50 1008.79 1008.21 1007.74 1007.38 1007.08 1006.84 1006.66 1006.55 1006.56 1006.71 1007.03 1007.53 1008.19 1008.94 1009.72 1010.47 1011.12 1011.66 1012.08 1012.40 1012.68 1012.96 1013.27 1013.63 1014.04 1014.47 1014.89 1015.26 1015.58 1015.83 1016.02 1016.17 1016.29 1016.42 1016.54 1016.66 1016.76
1013.91 1013.86 1013.81 1013.71 1013.52 1013.18 1012.69 1012.03 1011.25 1010.40 1009.53 1008.70 1007.97 1007.35 1006.86 1006.48 1006.21 1006.04 1005.95 1005.97 1006.12 1006.41 1006.85 1007.43 1008.14 1008.91 1009.69 1010.42 1011.06 1011.60 1012.02 1012.36 1012.66 1012.96 1013.28 1013.64 1014.03 1014.43 1014.83 1015.18 1015.48 1015.73 1015.94 1016.12 1016.29 1016.46 1016.64 1016.82 1016.98
1013.75 1013.54 1013.32 1013.08 1012.78 1012.40 1011.90 1011.30 1010.60 1009.83 1009.04 1008.27 1007.55 1006.93 1006.42 1006.03 1005.76 1005.62 1005.60 1005.71 1005.96 1006.35 1006.87 1007.50 1008.21 1008.96 1009.71 1010.39 1011.00 1011.51 1011.93 1012.29 1012.62 1012.95 1013.30 1013.68 1014.07 1014.46 1014.83 1015.17 1015.46 1015.71 1015.93 1016.14 1016.35 1016.58 1016.81 1017.05 1017.28
1013.49 1013.12 1012.75 1012.38 1012.00 1011.61 1011.17 1010.67 1010.11 1009.49 1008.82 1008.14 1007.49 1006.88 1006.36 1005.96 1005.69 1005.56 1005.58 1005.74 1006.06 1006.50 1007.05 1007.69 1008.38 1009.08 1009.75 1010.37 1010.92 1011.40 1011.82 1012.21 1012.58 1012.96 1013.36 1013.77 1014.19 1014.59 1014.96 1015.29 1015.57 1015.82 1016.05 1016.28 1016.52 1016.78 1017.06 1017.35 1017.63
1013.18 1012.66 1012.15 1011.68 1011.25 1010.86 1010.49 1010.12 1009.72 1009.27 1008.76 1008.21 1007.63 1007.07 1006.56 1006.15 1005.86 1005.73 1005.77 1005.96 1006.30 1006.76 1007.32 1007.93 1008.56 1009.19 1009.78 1010.32 1010.81 1011.27 1011.69 1012.12 1012.55 1013.00 1013.46 1013.93 1014.39 1014.82 1015.20 1015.53 1015.80 1016.05 1016.28 1016.52 1016.77 1017.06 1017.37 1017.69 1017.99
1012.87 1012.23 1011.61 1011.04 1010.56 1010.18 1009.88 1009.62 1009.37 1009.08 1008.73 1008.30 1007.81 1007.30 1006.81 1006.40 1006.11 1005.97 1006.00 1006.20 1006.55 1007.01 1007.55 1008.12 1008.69 1009.24 1009.76 1010.23 1010.68 1011.12 1011.57 1012.03 1012.53 1013.06 1013.60 1014.14 1014.65 1015.11 1015.51 1015.84 1016.12 1016.36 1016.59 1016.83 1017.09 1017.39 1017.70 1018.03 1018.35
1012.65 1011.92 1011.20 1010.54 1010.01 1009.61 1009.33 1009.15 1009.00 1008.83 1008.60 1008.27 1007.87 1007.41 1006.95 1006.55 1006.26 1006.12 1006.14 1006.34 1006.68 1007.13 1007.64 1008.18 1008.70 1009.20 1009.66 1010.10 1010.53 1010.97 1011.45 1011.96 1012.53 1013.13 1013.74 1014.34 1014.90 1015.40 1015.82 1016.17 1016.46 1016.70 1016.93 1017.17 1017.43 1017.73 1018.05 1018.38 1018.69
1012.60 1011.80 1010.99 1010.25 1009.64 1009.18 1008.88 1008.70 1008.59 1008.48 1008.32 1008.06 1007.72 1007.31 1006.88 1006.50 1006.21 1006.07 1006.10 1006.29 1006.62 1007.05 1007.55 1008.06 1008.57 1009.04 1009.49 1009.92 1010.36 1010.83 1011.35 1011.92 1012.54 1013.19 1013.85 1014.50 1015.09 1015.62 1016.07 1016.44 1016.74 1017.00 1017.25 1017.50 1017.77 1018.07 1018.39 1018.71 1019.02
1012.76 1011.92 1011.04 1010.21 1009.49 1008.94 1008.56 1008.33 1008.18 1008.06 1007.90 1007.68 1007.36 1006.99 1006.59 1006.23 1005.96 1005.83 1005.85 1006.03 1006.36 1006.78 1007.27 1007.78 1008.29 1008.78 1009.25 1009.72 1010.20 1010.72 1011.28 1011.90 1012.56 1013.24 1013.93 1014.59 1015.20 1015.75 1016.22 1016.61 1016.94 1017.24 1017.52 1017.80 1018.09 1018.41 1018.74 1019.07 1019.37
1013.16 1012.30 1011.35 1010.43 1009.60 1008.93 1008.42 1008.07 1007.83 1007.64 1007.44 1007.19 1006.89 1006.53 1006.16 1005.82 1005.57 1005.45 1005.47 1005.65 1005.96 1006.37 1006.86 1007.38 1007.91 1008.45 1008.98 1009.52 1010.07 1010.65 1011.26 1011.91 1012.59 1013.28 1013.97 1014.62 1015.23 1015.78 1016.27 1016.70 1017.07 1017.41 1017.74 1018.07 1018.41 1018.76 1019.12 1019.46 1019.78
1013.74 1012.87 1011.89 1010.89 1009.96 1009.14 1008.49 1007.99 1007.61 1007.30 1007.02 1006.73 1006.41 1006.06 1005.72 1005.41 1005.18 1005.06 1005.08 1005.23 1005.52 1005.92 1006.39 1006.93 1007.51 1008.10 1008.71 1009.34 1009.97 1010.63 1011.29 1011.97 1012.66 1013.33 1013.99 1014.62 1015.21 1015.76 1016.26 1016.72 1017.15 1017.56 1017.96 1018.35 1018.75 1019.15 1019.54 1019.91 1020.24
1014.39 1013.55 1012.56 1011.52 1010.50 1009.57 1008.77 1008.11 1007.58 1007.14 1006.76 1006.40 1006.05 1005.70 1005.38 1005.10 1004.88 1004.77 1004.78 1004.91 1005.15 1005.52 1005.98 1006.52 1007.13 1007.78 1008.48 1009.19 1009.92 1010.65 1011.37 1012.08 1012.75 1013.41 1014.03 1014.62 1015.18 1015.72 1016.24 1016.74 1017.23 1017.70 1018.18 1018.65 1019.11 1019.57 1020.00 1020.40 1020.76
1014.99 1014.20 1013.25 1012.21 1011.15 1010.14 1009.23 1008.43 1007.75 1007.18 1006.68 1006.25 1005.86 1005.51 1005.21 1004.95 1004.76 1004.65 1004.64 1004.73 1004.93 1005.24 1005.66 1006.19 1006.82 1007.52 1008.29 1009.09 1009.90 1010.71 1011.48 1012.20 1012.87 1013.50 1014.08 1014.64 1015.18 1015.71 1016.24 1016.78 1017.33 1017.87 1018.42 1018.96 1019.48 1019.99 1020.47 1020.90 1021.28
1015.39 1014.69 1013.83 1012.84 1011.81 1010.77 1009.78 1008.88 1008.07 1007.37 1006.77 1006.26 1005.83 1005.47 1005.18 1004.95 1004.78 1004.68 1004.65 1004.70 1004.84 1005.09 1005.46 1005.96 1006.58 1007.31 1008.13 1009.00 1009.88 1010.75 1011.57 1012.32 1012.99 1013.60 1014.16 1014.68 1015.20 1015.73 1016.28 1016.85 1017.45 1018.05 1018.66 1019.25 1019.82 1020.37 1020.88 1021.33 1021.73
1015.50 1014.94 1014.20 1013.33 1012.37 1011.36 1010.35 1009.37 1008.46 1007.64 1006.93 1006.33 1005.85 1005.48 1005.20 1005.00 1004.86 1004.77 1004.74 1004.76 1004.85 1005.04 1005.35 1005.80 1006.40 1007.13 1007.98 1008.89 1009.83 1010.75 1011.61 1012.38 1013.06 1013.67 1014.21 1014.73 1015.24 1015.77 1016.33 1016.94 1017.57 1018.21 1018.85 1019.48 1020.08 1020.65 1021.18 1021.65 1022.06
1015.30 1014.89 1014.33 1013.62 1012.78 1011.85 1010.84 1009.82 1008.81 1007.87 1007.04 1006.35 1005.80 1005.39 1005.12 1004.95 1004.85 1004.80 1004.78 1004.79 1004.86 1005.01 1005.27 1005.68 1006.24 1006.96 1007.81 1008.74 1009.71 1010.67 1011.56 1012.36 1013.06 1013.67 1014.21 1014.73 1015.24 1015.78 1016.36 1016.98 1017.63 1018.30 1018.96 1019.60 1020.21 1020.79 1021.32 1021.80 1022.22
1014.83 1014.59 1014.22 1013.70 1013.02 1012.18 1011.21 1010.14 1009.04 1007.98 1007.01 1006.19 1005.55 1005.10 1004.82 1004.67 1004.62 1004.63 1004.66 1004.70 1004.78 1004.92 1005.16 1005.53 1006.07 1006.76 1007.60 1008.53 1009.52 1010.49 1011.40 1012.22 1012.94 1013.57 1014.12 1014.65 1015.17 1015.73 1016.32 1016.95 1017.61 1018.28 1018.94 1019.58 1020.19 1020.76 1021.29 1021.78 1022.22
1014.19 1014.12 1013.95 1013.62 1013.09 1012.35 1011.41 1010.30 1009.10 1007.89 1006.77 1005.80 1005.05 1004.53 1004.22 1004.10 1004.11 1004.19 1004.29 1004.41 1004.54 1004.71 1004.95 1005.32 1005.84 1006.52 1007.34 1008.27 1009.24 1010.22 1011.14 1011.98 1012.71 1013.35 1013.93 1014.47 1015.01 1015.57 1016.17 1016.81 1017.47 1018.14 1018.79 1019.43 1020.03 1020.60 1021.13 1021.62 1022.08
1013.52 1013.59 1013.58 1013.42 1013.03 1012.37 1011.44 1010.28 1008.97 1007.61 1006.31 1005.19 1004.30 1003.69 1003.35 1003.24 1003.31 1003.47 1003.67 1003.89 1004.10 1004.34 1004.64 1005.03 1005.56 1006.23 1007.04 1007.95 1008.91 1009.88 1010.80 1011.64 1012.38 1013.04 1013.63 1014.19 1014.75 1015.32 1015.93 1016.57 1017.23 1017.90 1018.55 1019.17 1019.77 1020.34 1020.87 1021.38 1021.86
1012.94 1013.10 1013.22 1013.18 1012.88 1012.28 1011.34 1010.12 1008.69 1007.17 1005.71 1004.42 1003.40 1002.70 1002.31 1002.21 1002.32 1002.56 1002.87 1003.19 1003.52 1003.85 1004.22 1004.66 1005.22 1005.90 1006.71 1007.61 1008.56 1009.51 1010.42 1011.26 1012.00 1012.67 1013.28 1013.85 1014.42 1015.02 1015.64 1016.28 1016.94 1017.61 1018.26 1018.88 1019.48 1020.06 1020.61 1021.13 1021.63
1012.54 1012.73 1012.90 1012.92 1012.67 1012.08 1011.12 1009.83 1008.30 1006.65 1005.05 1003.63 1002.50 1001.71 1001.28 1001.16 1001.30 1001.61 1002.01 1002.43 1002.86 1003.28 1003.74 1004.25 1004.85 1005.56 1006.37 1007.26 1008.20 1009.14 1010.04 1010.87 1011.61 1012.29 1012.91 1013.50 1014.09 1014.70 1015.33 1015.99 1016.66 1017.33 1017.98 1018.61 1019.22 1019.81 1020.37 1020.92 1021.45
1012.35 1012.48 1012.63 1012.63 1012.38 1011.77 1010.78 1009.44 1007.84 1006.13 1004.45 1002.95 1001.74 1000.90 1000.43 1000.30 1000.45 1000.78 1001.23 1001.72 1002.21 1002.71 1003.24 1003.81 1004.46 1005.20 1006.03 1006.93 1007.86 1008.79 1009.68 1010.51 1011.25 1011.94 1012.57 1013.18 1013.79 1014.42 1015.07 1015.74 1016.42 1017.10 1017.76 1018.41 1019.03 1019.63 1020.21 1020.77 1021.31
1012.32 1012.33 1012.37 1012.29 1011.97 1011.32 1010.30 1008.95 1007.35 1005.64 1003.96 1002.46 1001.26 1000.40 999.92 999.77 999.90 1000.23 1000.67 1001.16 1001.68 1002.21 1002.77 1003.38 1004.06 1004.84 1005.69 1006.60 1007.54 1008.47 1009.36 1010.19 1010.94 1011.63 1012.28 1012.91 1013.54 1014.19 1014.86 1015.55 1016.25 1016.94 1017.62 1018.27 1018.90 1019.51 1020.09 1020.66 1021.20
1012.39 1012.21 1012.08 1011.86 1011.43 1010.72 1009.69 1008.37 1006.84 1005.21 1003.64 1002.24 1001.11 1000.30 999.83 999.67 999.76 1000.03 1000.41 1000.85 1001.32 1001.82 1002.37 1002.98 1003.68 1004.47 1005.35 1006.28 1007.23 1008.18 1009.07 1009.91 1010.67 1011.38 1012.04 1012.69 1013.35 1014.02 1014.71 1015.42 1016.13 1016.84 1017.52 1018.18 1018.81 1019.42 1020.00 1020.56 1021.09
1012.51 1012.08 1011.72 1011.30 1010.74 1009.96 1008.93 1007.69 1006.29 1004.85 1003.48 1002.27 1001.30 1000.60 1000.19 1000.03 1000.06 1000.23 1000.50 1000.81 1001.18 1001.59 1002.07 1002.64 1003.33 1004.12 1005.01 1005.96 1006.93 1007.89 1008.80 1009.65 1010.43 1011.15 1011.84 1012.51 1013.18 1013.88 1014.59 1015.31 1016.04 1016.75 1017.44 1018.10 1018.72 1019.32 1019.88 1020.42 1020.94
1012.63 1011.93 1011.31 1010.67 1009.94 1009.08 1008.07 1006.94 1005.74 1004.56 1003.46 1002.52 1001.78 1001.25 1000.93 1000.78 1000.75 1000.81 1000.92 1001.07 1001.27 1001.54 1001.91 1002.40 1003.04 1003.81 1004.70 1005.65 1006.64 1007.61 1008.54 1009.40 1010.20 1010.94 1011.64 1012.33 1013.02 1013.73 1014.45 1015.19 1015.93 1016.65 1017.34 1017.99 1018.60 1019.18 1019.72 1020.23 1020.71
1012.77 1011.80 1010.91 1010.03 1009.13 1008.19 1007.21 1006.21 1005.23 1004.34 1003.57 1002.94 1002.48 1002.17 1001.97 1001.84 1001.76 1001.69 1001.62 1001.58 1001.59 1001.68 1001.91 1002.29 1002.86 1003.59 1004.45 1005.40 1006.39 1007.37 1008.30 1009.17 1009.98 1010.72 1011.43 1012.13 1012.83 1013.55 1014.28 1015.03 1015.77 1016.49 1017.18 1017.83 1018.43 1018.98 1019.50 1019.98 1020.44
1012.97 1011.77 1010.62 1009.52 1008.45 1007.43 1006.46 1005.59 1004.84 1004.24 1003.80 1003.50 1003.33 1003.24 1003.17 1003.09 1002.96 1002.78 1002.54 1002.31 1002.12 1002.03 1002.10 1002.36 1002.84 1003.50 1004.32 1005.25 1006.22 1007.19 1008.12 1008.98 1009.77 1010.51 1011.22 1011.92 1012.62 1013.34 1014.08 1014.83 1015.58 1016.30 1016.99 1017.63 1018.22 1018.76 1019.26 1019.72 1020.15
Thickness
5698 5701 5702 5696 5681 5668 5676 5691 5702 5709 5715 5725 5730 5730 5728 5728 5726 5728 5746 5754 5754 5753 5750 5748 5747 5745 5743 5742 5741 5740 5739 5738 5737 5736 5735 5734 5733 5732 5731 5730 5730 5729 5728 5727 5725 5724 5723 5721 5720
5691 5693 5688 5679 5665 5658 5674 5692 5699 5711 5721 5725 5727 5729 5728 5729 5737 5741 5745 5749 5751 5750 5748 5746 5744 5742 5740 5739 5738 5736 5735 5735 5734 5733 5732 5731 5730 5729 5728 5727 5726 5725 5724 5723 5721 5720 5719 5718 5716
5683 5683 5673 5664 5658 5666 5682 5695 5701 5711 5718 5721 5720 5724 5725 5728 5735 5739 5744 5747 5747 5745 5744 5742 5741 5739 5737 5736 5734 5733 5732 5731 5730 5729 5728 5727 5726 5725 5724 5723 5722 5721 5720 5719 5718 5716 5715 5714 5712
5671 5666 5660 5654 5660 5675 5687 5697 5702 5705 5711 5716 5717 5716 5722 5731 5735 5739 5742 5743 5742 5741 5740 5738 5737 5735 5734 5732 5731 5730 5729 5728 5727 5726 5725 5724 5723 5722 5720 5719 5718 5717 5716 5715 5714 5712 5711 5709 5708
5657 5652 5646 5647 5660 5674 5684 5693 5698 5700 5704 5709 5712 5711 5716 5727 5734 5737 5738 5738 5738 5736 5735 5734 5733 5731 5730 5729 5727 5726 5725 5724 5723 5722 5721 5720 5718 5717 5716 5715 5714 5713 5712 5711 5710 5708 5707 5705 5704
5640 5640 5636 5642 5657 5670 5680 5689 5692 5695 5698 5702 5705 5706 5712 5723 5728 5730 5732 5732 5732 5732 5731 5729 5728 5727 5725 5724 5723 5722 5720 5719 5719 5718 5717 5715 5714 5713 5712 5711 5710 5709 5708 5707 5705 5704 5702 5701 5699
5630 5630 5634 5643 5652 5663 5677 5685 5686 5687 5691 5696 5702 5701 5707 5716 5722 5726 5726 5726 5726 5726 5725 5724 5723 5722 5721 5719 5718 5717 5716 5715 5714 5713 5712 5711 5710 5709 5708 5707 5706 5705 5703 5702 5701 5700 5698 5697 5695
5624 5624 5628 5635 5646 5659 5673 5679 5684 5685 5687 5694 5699 5697 5702 5712 5717 5719 5719 5718 5718 5719 5719 5719 5718 5717 5715 5714 5713 5712 5711 5710 5709 5708 5707 5706 5705 5704 5703 5702 5701 5700 5699 5698 5696 5695 5693 5692 5690
5616 5612 5621 5633 5643 5655 5667 5671 5677 5682 5682 5687 5692 5698 5705 5709 5711 5711 5710 5710 5711 5711 5712 5713 5713 5712 5710 5709 5708 5707 5706 5704 5703 5702 5701 5700 5700 5699 5698 5697 5696 5695 5694 5693 5691 5690 5688 5687 5685
5602 5605 5623 5636 5643 5651 5659 5664 5668 5671 5673 5677 5684 5692 5698 5702 5703 5704 5704 5704 5705 5705 5706 5707 5707 5706 5705 5704 5702 5701 5700 5699 5698 5697 5696 5695 5694 5693 5692 5691 5691 5690 5689 5688 5686 5685 5683 5682 5680
5596 5605 5620 5630 5638 5645 5650 5655 5661 5663 5664 5673 5679 5685 5689 5692 5695 5697 5699 5700 5700 5700 5700 5700 5701 5700 5699 5698 5697 5695 5694 5693 5692 5691 5690 5689 5688 5687 5686 5686 5685 5684 5683 5682 5681 5679 5678 5676 5675
5587 5599 5610 5620 5629 5635 5641 5647 5650 5656 5665 5673 5678 5682 5683 5685 5687 5690 5692 5693 5693 5693 5693 5694 5694 5694 5693 5692 5691 5690 5689 5688 5686 5685 5685 5684 5683 5681 5680 5680 5679 5678 5677 5676 5675 5673 5672 5671 5669
5579 5590 5601 5608 5617 5624 5630 5635 5641 5647 5657 5665 5669 5672 5675 5677 5679 5682 5685 5686 5686 5686 5687 5687 5688 5688 5687 5686 5685 5684 5683 5682 5681 5679 5678 5678 5677 5676 5675 5673 5672 5671 5671 5670 5669 5667 5666 5665 5664
5573 5580 5589 5597 5606 5615 5619 5625 5632 5641 5648 5654 5658 5661 5665 5668 5671 5673 5675 5677 5678 5680 5680 5681 5681 5681 5680 5679 5678 5677 5676 5675 5674 5673 5672 5672 5671 5670 5669 5667 5666 5665 5665 5664 5663 5661 5660 5659 5657
5565 5567 5576 5585 5594 5603 5610 5612 5622 5634 5638 5643 5647 5652 5656 5659 5663 5666 5669 5670 5672 5673 5673 5674 5674 5673 5673 5673 5672 5670 5669 5669 5667 5666 5665 5665 5665 5664 5663 5661 5660 5659 5658 5657 5656 5655 5653 5652 5651
5553 5554 5560 5576 5584 5593 5597 5598 5616 5623 5628 5632 5637 5642 5646 5650 5654 5657 5660 5662 5664 5665 5666 5666 5667 5666 5666 5665 5665 5663 5662 5661 5660 5659 5658 5658 5657 5657 5656 5655 5654 5653 5652 5651 5650 5648 5646 5644 5643
5536 5540 5550 5564 5575 5582 5585 5590 5605 5612 5619 5623 5627 5632 5636 5640 5643 5648 5651 5654 5656 5658 5658 5658 5658 5658 5658 5657 5656 5655 5654 5653 5652 5652 5651 5651 5650 5650 5649 5648 5647 5646 5645 5644 5643 5640 5638 5636 5635
5529 5535 5543 5550 5563 5569 5572 5579 5592 5600 5607 5613 5617 5622 5627 5631 5635 5638 5641 5644 5647 5649 5649 5649 5649 5649 5649 5648 5647 5646 5645 5644 5644 5644 5643 5643 5642 5642 5641 5640 5639 5639 5637 5636 5634 5632 5630 5628 5627
5528 5531 5535 5544 5554 5559 5563 5570 5580 5587 5593 5600 5606 5612 5617 5622 5625 5629 5632 5634 5637 5638 5639 5640 5640 5639 5640 5640 5639 5637 5636 5635 5635 5635 5635 5635 5634 5634 5633 5632 5631 5631 5629 5628 5627 5625 5622 5619 5619
5519 5520 5525 5534 5545 5551 5552 5557 5568 5575 5583 5591 5597 5602 5607 5611 5615 5618 5621 5624 5626 5629 5630 5630 5630 5631 5632 5632 5631 5630 5629 5627 5627 5627 5626 5626 5626 5625 5624 5623 5622 5622 5621 5620 5619 5617 5614 5611 5610
5510 5515 5519 5525 5533 5539 5542 5546 5556 5566 5573 5579 5585 5590 5595 5600 5604 5608 5611 5613 5616 5618 5620 5622 5622 5622 5623 5623 5622 5620 5618 5617 5616 5617 5617 5617 5617 5616 5615 5614 5614 5613 5613 5612 5611 5609 5608 5604 5601
5503 5513 5518 5521 5521 5519 5530 5527 5544 5554 5561 5568 5573 5578 5583 5588 5593 5598 5601 5603 5606 5608 5610 5612 5613 5613 5613 5614 5614 5614 5612 5610 5609 5608 5608 5607 5607 5607 5606 5605 5605 5604 5604 5604 5603 5601 5600 5598 5594
5501 5510 5512 5513 5509 5508 5516 5516 5530 5541 5550 5560 5565 5569 5573 5578 5583 5587 5590 5593 5596 5598 5600 5602 5603 5604 5604 5605 5605 5605 5603 5602 5600 5599 5598 5597 5597 5597 5596 5595 5595 5594 5594 5594 5593 5592 5591 5589 5587
5497 5498 5499 5498 5499 5499 5508 5509 5518 5530 5547 5555 5558 5561 5564 5568 5571 5575 5578 5582 5584 5587 5589 5591 5593 5594 5594 5594 5595 5595 5594 5592 5590 5589 5588 5587 5586 5586 5586 5585 5585 5584 5584 5584 5584 5583 5582 5580 5578
5488 5485 5482 5483 5484 5492 5502 5504 5514 5531 5537 5545 5551 5551 5552 5556 5559 5563 5566 5570 5573 5576 5578 5581 5583 5583 5583 5584 5585 5585 5585 5584 5582 5580 5579 5578 5577 5576 5575 5575 5575 5574 5574 5573 5573 5572 5571 5569 5568
5478 5481 5480 5479 5479 5481 5492 5497 5508 5517 5524 5531 5537 5540 5541 5544 5547 5551 5556 5559 5563 5565 5567 5570 5572 5573 5573 5574 5574 5575 5574 5573 5572 5571 5570 5569 5568 5568 5567 5565 5565 5564 5564 5563 5562 5561 5560 5559 5558
5471 5470 5477 5469 5463 5470 5480 5486 5499 5510 5515 5519 5522 5525 5528 5532 5536 5540 5545 5548 5552 5555 5557 5560 5562 5563 5563 5563 5563 5564 5564 5563 5562 5560 5560 5559 5558 5558 5557 5556 5555 5555 5554 5553 5552 5551 5550 5549 5548
5468 5467 5464 5465 5465 5469 5476 5481 5494 5500 5504 5508 5510 5512 5516 5520 5524 5529 5534 5538 5541 5544 5546 5548 5551 5552 5553 5553 5553 5553 5553 5553 5551 5550 5549 5548 5548 5548 5547 5546 5545 5544 5543 5542 5541 5541 5540 5539 5539
5458 5460 5460 5457 5462 5461 5467 5484 5492 5495 5498 5498 5499 5500 5503 5507 5512 5517 5522 5527 5530 5533 5535 5537 5539 5540 5541 5542 5542 5542 5542 5541 5540 5539 5538 5538 5537 5537 5537 5536 5535 5534 5533 5532 5531 5530 5530 5530 5529
5453 5455 5455 5459 5449 5447 5456 5474 5481 5482 5485 5486 5487 5490 5492 5495 5500 5505 5510 5514 5517 5521 5524 5525 5527 5528 5530 5530 5531 5530 5530 5529 5529 5528 5527 5527 5527 5526 5526 5526 5525 5524 5523 5522 5521 5521 5520 5520 5519